K4EME-15 Weather Reports


time (UTC)temp
C
wind
direction
speed
KPH
gust
KPH
rain 1hr
cm
rain 24hr
cm
rain mn
cm
humidity
%
barometer
mb
20260510052649 12 0 0.0 0.0 461.85 0.00 0.00
20260510052149 13 0 0.0 0.0 461.85 0.00 0.00
20260510051649 15 187 3.2 8.0 461.85 0.00 0.00
20260510031149 14 0 0.0 0.0 461.85 0.00 0.00
20260510030149 13 0 0.0 0.0 461.85 0.00 0.00
20260510025649 13 0 0.0 0.0 461.85 0.00 0.00
20260510025149 14 0 0.0 0.0 461.85 0.00 0.00
20260510024649 15 0 0.0 0.0 461.85 0.00 0.00
20260510024149 15 0 0.0 0.0 461.85 0.00 0.00
20260510023650 15 0 0.0 0.0 461.85 0.00 0.00
20260510023149 14 0 0.0 0.0 461.85 0.00 0.00
20260510022649 13 0 0.0 0.0 461.85 0.00 0.00
20260510022149 15 0 0.0 0.0 461.85 0.00 0.00
20260510021649 15 246 1.6 6.4 461.85 0.00 0.00
20260510021149 16 262 1.6 4.8 461.85 0.00 0.00
20260510020650 17 260 3.2 12.9 461.85 0.00 0.00
20260510020149 16 0 0.0 0.0 461.85 0.00 0.00
20260510015649 15 0 0.0 0.0 461.85 0.00 0.00
20260510015149 16 0 0.0 0.0 461.85 0.00 0.00
20260510014649 16 0 0.0 0.0 461.85 0.00 0.00
20260510014149 15 0 0.0 0.0 461.85 0.00 0.00
20260510013649 15 0 0.0 0.0 461.85 0.00 0.00
20260510013149 15 0 0.0 0.0 461.85 0.00 0.00
20260510012651 16 0 0.0 0.0 461.85 0.00 0.00
20260510012149 16 236 1.6 8.0 461.85 0.00 0.00
20260510011648 16 285 4.8 9.7 461.85 0.00 0.00
20260510011148 15 278 3.2 8.0 461.85 0.00 0.00
20260510010649 16 0 0.0 0.0 461.85 0.00 0.00
20260510010148 15 0 0.0 0.0 461.85 0.00 0.00
20260510005649 16 0 0.0 0.0 461.85 0.00 0.00
20260510005148 17 0 0.0 0.0 461.85 0.00 0.00
20260510004649 16 0 0.0 0.0 461.85 0.00 0.00
20260510004151 17 0 0.0 0.0 461.85 0.00 0.00
20260510003649 16 0 0.0 0.0 461.85 0.00 0.00
20260510003149 16 0 0.0 0.0 461.85 0.00 0.00
20260510002648 17 0 0.0 0.0 461.85 0.00 0.00
20260510002148 17 0 0.0 0.0 461.85 0.00 0.00
20260510001649 18 0 0.0 0.0 461.85 0.00 0.00
20260510001148 20 0 0.0 0.0 461.85 0.00 0.00
20260510000650 18 0 0.0 0.0 461.85 0.00 0.00
20260510000149 21 0 0.0 0.0 461.85 0.00 0.00
20260509235650 21 0 0.0 0.0 461.85 0.00 0.00
20260509235148 20 0 0.0 0.0 461.85 0.00 0.00
20260509234649 20 291 1.6 6.4 461.85 0.00 0.00
20260509234149 21 280 6.4 14.5 461.85 0.00 0.00
20260509233649 20 0 0.0 0.0 461.85 0.00 0.00
20260509233149 21 0 0.0 0.0 461.85 0.00 0.00
20260509232649 21 0 0.0 0.0 461.85 0.00 0.00
20260509232151 21 0 0.0 0.0 461.85 0.00 0.00
20260509231648 20 0 0.0 0.0 461.85 0.00 0.00
20260509231148 20 0 0.0 0.0 461.85 0.00 0.00
20260509230649 23 0 0.0 0.0 461.85 0.00 0.00
20260509230149 22 0 0.0 0.0 461.85 0.00 0.00
20260509225649 23 204 4.8 8.0 461.85 0.00 0.00
20260509225148 22 329 4.8 8.0 461.85 0.00 0.00
20260509224655 21 0 0.0 0.0 461.85 0.00 0.00
20260509224149 21 188 6.4 8.0 461.85 0.00 0.00
20260509223649 20 0 0.0 0.0 461.85 0.00 0.00
20260509223149 20 0 0.0 0.0 461.85 0.00 0.00
20260509222649 20 207 3.2 9.7 461.85 0.00 0.00
20260509222149 20 194 8.0 12.9 461.85 0.00 0.00
20260509221649 20 188 6.4 11.3 461.85 0.00 0.00
20260509221149 21 205 6.4 9.7 461.85 0.00 0.00
20260509220651 21 204 3.2 6.4 461.85 0.00 0.00
20260509220152 20 195 3.2 8.0 461.85 0.00 0.00
20260509215649 21 197 1.6 8.0 461.85 0.00 0.00
20260509215149 20 197 1.6 6.4 461.85 0.00 0.00
20260509214649 21 201 9.7 14.5 461.85 0.00 0.00
20260509214150 22 210 8.0 9.7 461.85 0.00 0.00
20260509213649 22 0 0.0 0.0 461.85 0.00 0.00
20260509213150 20 200 4.8 8.0 461.85 0.00 0.00
20260509212649 21 198 4.8 9.7 461.85 0.00 0.00
20260509212151 21 0 0.0 0.0 461.85 0.00 0.00
20260509211650 21 0 0.0 0.0 461.85 0.00 0.00
20260509211151 20 204 8.0 11.3 461.85 0.00 0.00
20260509210650 21 210 3.2 8.0 461.85 0.00 0.00
20260509210149 21 184 4.8 9.7 461.85 0.00 0.00
20260509205650 21 204 8.0 11.3 461.85 0.00 0.00
20260509205149 20 193 9.7 14.5 461.85 0.00 0.00
20260509204149 21 195 8.0 11.3 461.85 0.00 0.00
20260509203649 21 201 8.0 12.9 461.85 0.00 0.00
20260509203149 21 203 4.8 8.0 461.85 0.00 0.00
20260509202650 22 197 9.7 12.9 461.85 0.00 0.00
20260509202150 21 201 8.0 12.9 461.85 0.00 0.00
20260509201649 22 203 8.0 12.9 461.85 0.00 0.00
20260509201150 22 200 4.8 11.3 461.85 0.00 0.00
20260509200649 21 194 9.7 12.9 461.85 0.00 0.00
20260509200150 22 210 8.0 12.9 461.85 0.00 0.00
20260509195649 22 114 3.2 8.0 461.85 0.00 0.00
20260509195149 20 0 0.0 0.0 461.85 0.00 0.00
20260509194649 20 204 1.6 8.0 461.85 0.00 0.00
20260509194150 22 208 6.4 11.3 461.85 0.00 0.00
20260509193650 23 203 9.7 12.9 461.85 0.00 0.00
20260509193150 22 203 9.7 14.5 461.85 0.00 0.00
20260509192649 21 212 9.7 14.5 461.85 0.00 0.00
20260509192150 23 208 9.7 16.1 461.85 0.00 0.00
20260509191650 22 188 11.3 17.7 461.85 0.00 0.00
20260509191149 23 197 9.7 14.5 461.85 0.00 0.00
20260509190650 20 210 6.4 11.3 461.85 0.00 0.00
20260509190150 20 187 8.0 11.3 461.85 0.00 0.00
20260509185650 20 204 9.7 14.5 461.85 0.00 0.00
20260509185149 21 212 8.0 12.9 461.85 0.00 0.00
20260509184651 19 211 9.7 12.9 461.85 0.00 0.00
20260509184150 20 0 0.0 0.0 461.85 0.00 0.00
20260509183651 20 203 8.0 11.3 461.85 0.00 0.00
20260509183150 19 177 6.4 12.9 461.85 0.00 0.00
20260509182650 20 205 6.4 11.3 461.85 0.00 0.00
20260509182150 21 200 6.4 11.3 461.85 0.00 0.00
20260509181650 21 201 6.4 12.9 461.85 0.00 0.00
20260509181150 20 195 6.4 11.3 461.85 0.00 0.00
20260509180650 23 333 6.4 9.7 461.85 0.00 0.00
20260509180150 22 326 3.2 11.3 461.85 0.00 0.00
20260509175650 22 0 0.0 0.0 461.85 0.00 0.00
20260509174651 21 195 3.2 9.7 461.85 0.00 0.00